Weather History for Ypsilanti, MI

Change the Weather History Date:

Thursday, March 28, 2013

  Actual Average Record
Temperature  
Mean Temperature 43 °F -  
Max Temperature 55 °F 52 °F 75 °F (1989)
Min Temperature 32 °F 33 °F 14 °F (1982)
Degree Days  
Heating Degree Days 22    
Moisture  
Dew Point 23 °F    
Average Humidity 47    
Maximum Humidity 70    
Minimum Humidity 29    
Precipitation  
Precipitation 0.00 in - - ()
Sea Level Pressure  
Sea Level Pressure 30.23 in    
Wind  
Wind Speed 11 mph (WNW)    
Max Wind Speed 16 mph    
Max Gust Speed 26 mph    
Visibility 10 miles    
Events      
Averages and records for this station are not official NWS values.
T = Trace of Precipitation, MM = Missing Value Source: NWS Daily Summary

Daily Weather History Graph

Daily Weather History Graph

Search for Another Location

Airport:

Trip Planner

Search our weather history database for the weather conditions in past years. The results will help you decide how hot, cold, wet, or windy it might be!

Date:

Astronomy

Mar. 28, 2013 Rise Set
Actual Time 7:23 AM EDT 7:55 PM EDT
Civil Twilight 6:55 AM EDT 8:23 PM EDT
Nautical Twilight 6:21 AM EDT 8:57 PM EDT
Astronomical Twilight 5:47 AM EDT 9:31 PM EDT
Moon 9:49 PM EDT (3/28) 7:48 AM EDT (3/28)
Length of Visible Light 13h 28m
Length of Day
12h 32m
Full, 98% of the Moon is Illuminated
Mar 28
Full
Apr 3
Last Quarter
Apr 10
New
Apr 18
First Quarter
Apr 25
Full

Hourly Weather History & Observations

Time (EDT) Temp. Windchill Dew Point Humidity Pressure Visibility Wind Dir Wind Speed Gust Speed Precip Events Conditions
12:53 AM 37.9 °F 29.2 °F 23.0 °F 55% 30.21 in 10.0 mi WNW 15.0 mph - N/A   Overcast
1:53 AM 37.0 °F 28.9 °F 21.9 °F 54% 30.22 in 10.0 mi WNW 12.7 mph - N/A   Overcast
2:53 AM 36.0 °F 28.0 °F 21.0 °F 55% 30.22 in 10.0 mi WNW 11.5 mph - N/A   Overcast
3:53 AM 35.1 °F 27.4 °F 21.0 °F 57% 30.21 in 10.0 mi WNW 10.4 mph - N/A   Overcast
4:53 AM 34.0 °F 25.0 °F 21.0 °F 59% 30.21 in 10.0 mi WNW 12.7 mph - N/A   Scattered Clouds
5:53 AM 32.0 °F 24.2 °F 21.9 °F 66% 30.21 in 10.0 mi WNW 9.2 mph - N/A   Clear
6:53 AM 32.0 °F 23.6 °F 23.0 °F 69% 30.22 in 10.0 mi WNW 10.4 mph - N/A   Partly Cloudy
7:53 AM 33.1 °F 26.1 °F 24.1 °F 70% 30.24 in 10.0 mi WNW 8.1 mph - N/A   Scattered Clouds
8:53 AM 36.0 °F 28.5 °F 25.0 °F 64% 30.25 in 10.0 mi WNW 10.4 mph - N/A   Overcast
9:53 AM 37.9 °F 29.6 °F 25.0 °F 60% 30.26 in 10.0 mi WNW 13.8 mph 18.4 mph N/A   Overcast
10:53 AM 43.0 °F 36.8 °F 25.0 °F 49% 30.26 in 10.0 mi NW 11.5 mph - N/A   Overcast
11:53 AM 48.9 °F - 24.1 °F 38% 30.26 in 10.0 mi NW 16.1 mph 20.7 mph N/A   Mostly Cloudy
12:53 PM 48.9 °F - 21.9 °F 35% 30.25 in 10.0 mi NW 10.4 mph 23.0 mph N/A   Overcast
1:53 PM 52.0 °F - 21.0 °F 30% 30.24 in 10.0 mi North 10.4 mph - N/A   Mostly Cloudy
2:53 PM 53.1 °F - 21.0 °F 29% 30.23 in 10.0 mi WNW 12.7 mph 26.5 mph N/A   Mostly Cloudy
3:53 PM 54.0 °F - 21.9 °F 29% 30.22 in 10.0 mi West 11.5 mph - N/A   Overcast
4:53 PM 54.0 °F - 21.9 °F 29% 30.22 in 10.0 mi West 6.9 mph - N/A   Overcast
5:53 PM 53.1 °F - 24.1 °F 32% 30.22 in 10.0 mi WNW 10.4 mph - N/A   Overcast
6:53 PM 51.1 °F - 24.1 °F 35% 30.23 in 10.0 mi NW 9.2 mph - N/A   Overcast
7:53 PM 50.0 °F - 24.1 °F 36% 30.23 in 10.0 mi NW 8.1 mph - N/A   Overcast
8:53 PM 48.0 °F - 25.0 °F 41% 30.24 in 10.0 mi NW 6.9 mph - N/A   Overcast
9:53 PM 48.0 °F - 24.1 °F 39% 30.25 in 10.0 mi NNW 3.5 mph - N/A   Overcast
10:53 PM 44.1 °F 40.8 °F 25.0 °F 47% 30.26 in 10.0 mi NW 5.8 mph - N/A   Overcast
11:53 PM 43.0 °F 37.2 °F 25.0 °F 49% 30.26 in 10.0 mi NW 10.4 mph - N/A   Mostly Cloudy